Year,Month,Day,Hour,Minute,Value (Times are PST for temperature in C)
2014,07,10,00,00,18.30
2014,07,10,00,01,18.30
2014,07,10,00,02,18.30
2014,07,10,00,03,18.30
2014,07,10,00,04,18.20
2014,07,10,00,05,18.20
2014,07,10,00,06,18.20
2014,07,10,00,07,18.20
2014,07,10,00,08,18.20
2014,07,10,00,09,18.10
2014,07,10,00,10,18.10
2014,07,10,00,11,18.00
2014,07,10,00,12,17.90
2014,07,10,00,13,17.80
2014,07,10,00,14,17.70
2014,07,10,00,15,17.70
2014,07,10,00,16,17.60
2014,07,10,00,17,17.50
2014,07,10,00,18,17.50
2014,07,10,00,19,17.40
2014,07,10,00,20,17.30
2014,07,10,00,21,17.30
2014,07,10,00,22,17.30
2014,07,10,00,23,17.20
2014,07,10,00,24,17.20
2014,07,10,00,25,17.20
2014,07,10,00,26,17.10
2014,07,10,00,27,17.10
2014,07,10,00,28,17.10
2014,07,10,00,29,17.00
2014,07,10,00,30,17.00
2014,07,10,00,31,16.90
2014,07,10,00,32,16.90
2014,07,10,00,33,16.90
2014,07,10,00,34,16.80
2014,07,10,00,35,16.80
2014,07,10,00,36,16.80
2014,07,10,00,37,16.80
2014,07,10,00,38,16.80
2014,07,10,00,39,16.80
2014,07,10,00,40,16.70
2014,07,10,00,41,16.70
2014,07,10,00,42,16.70
2014,07,10,00,43,16.70
2014,07,10,00,44,16.70
2014,07,10,00,45,16.70
2014,07,10,00,46,16.60
2014,07,10,00,47,16.60
2014,07,10,00,48,16.60
2014,07,10,00,49,16.50
2014,07,10,00,50,16.50
2014,07,10,00,51,16.50
2014,07,10,00,52,16.40
2014,07,10,00,53,16.40
2014,07,10,00,54,16.40
2014,07,10,00,55,16.40
2014,07,10,00,56,16.40
2014,07,10,00,57,16.40
2014,07,10,00,58,16.40
2014,07,10,00,59,16.40
2014,07,10,01,00,16.40
2014,07,10,01,01,16.30
2014,07,10,01,02,16.30
2014,07,10,01,03,16.30
2014,07,10,01,04,16.30
2014,07,10,01,05,16.30
2014,07,10,01,06,16.30
2014,07,10,01,07,16.20
2014,07,10,01,08,16.20
2014,07,10,01,09,16.20
2014,07,10,01,10,16.20
2014,07,10,01,11,16.20
2014,07,10,01,12,16.20
2014,07,10,01,13,16.20
2014,07,10,01,14,16.20
2014,07,10,01,15,16.20
2014,07,10,01,16,16.10
2014,07,10,01,17,16.10
2014,07,10,01,18,16.10
2014,07,10,01,19,16.10
2014,07,10,01,20,16.10
2014,07,10,01,21,16.00
2014,07,10,01,22,16.00
2014,07,10,01,23,16.00
2014,07,10,01,24,15.90
2014,07,10,01,25,15.90
2014,07,10,01,26,15.90
2014,07,10,01,27,15.90
2014,07,10,01,28,15.90
2014,07,10,01,29,15.90
2014,07,10,01,30,15.80
2014,07,10,01,31,15.80
2014,07,10,01,32,15.80
2014,07,10,01,33,15.80
2014,07,10,01,34,15.80
2014,07,10,01,35,15.70
2014,07,10,01,36,15.70
2014,07,10,01,37,15.70
2014,07,10,01,38,15.70
2014,07,10,01,39,15.60
2014,07,10,01,40,15.60
2014,07,10,01,41,15.60
2014,07,10,01,42,15.60
2014,07,10,01,43,15.50
2014,07,10,01,44,15.50
2014,07,10,01,45,15.50
2014,07,10,01,46,15.40
2014,07,10,01,47,15.40
2014,07,10,01,48,15.40
2014,07,10,01,49,15.40
2014,07,10,01,50,15.40
2014,07,10,01,51,15.30
2014,07,10,01,52,15.30
2014,07,10,01,53,15.30
2014,07,10,01,54,15.30
2014,07,10,01,55,15.30
2014,07,10,01,56,15.30
2014,07,10,01,57,15.30
2014,07,10,01,58,15.30
2014,07,10,01,59,15.20
2014,07,10,02,00,15.20
2014,07,10,02,01,15.20
2014,07,10,02,02,15.20
2014,07,10,02,03,15.20
2014,07,10,02,04,15.20
2014,07,10,02,05,15.20
2014,07,10,02,06,15.10
2014,07,10,02,07,15.10
2014,07,10,02,08,15.10
2014,07,10,02,09,15.10
2014,07,10,02,10,15.10
2014,07,10,02,11,15.10
2014,07,10,02,12,15.00
2014,07,10,02,13,15.00
2014,07,10,02,14,15.00
2014,07,10,02,15,15.00
2014,07,10,02,16,14.90
2014,07,10,02,17,14.90
2014,07,10,02,18,14.90
2014,07,10,02,19,14.90
2014,07,10,02,20,14.90
2014,07,10,02,21,14.90
2014,07,10,02,22,14.80
2014,07,10,02,23,14.80
2014,07,10,02,24,14.80
2014,07,10,02,25,14.80
2014,07,10,02,26,14.80
2014,07,10,02,27,14.70
2014,07,10,02,28,14.70
2014,07,10,02,29,14.70
2014,07,10,02,30,14.70
2014,07,10,02,31,14.70
2014,07,10,02,32,14.70
2014,07,10,02,33,14.60
2014,07,10,02,34,14.60
2014,07,10,02,35,14.60
2014,07,10,02,36,14.60
2014,07,10,02,37,14.60
2014,07,10,02,38,14.60
2014,07,10,02,39,14.60
2014,07,10,02,40,14.60
2014,07,10,02,41,14.60
2014,07,10,02,42,14.60
2014,07,10,02,43,14.60
2014,07,10,02,44,14.70
2014,07,10,02,45,14.70
2014,07,10,02,46,14.70
2014,07,10,02,47,14.70
2014,07,10,02,48,14.70
2014,07,10,02,49,14.70
2014,07,10,02,50,14.70
2014,07,10,02,51,14.70
2014,07,10,02,52,14.70
2014,07,10,02,53,14.60
2014,07,10,02,54,14.60
2014,07,10,02,55,14.60
2014,07,10,02,56,14.60
2014,07,10,02,57,14.60
2014,07,10,02,58,14.50
2014,07,10,02,59,14.50
2014,07,10,03,00,14.50
2014,07,10,03,01,14.60
2014,07,10,03,02,14.60
2014,07,10,03,06,14.50
2014,07,10,03,07,14.50
2014,07,10,03,08,14.40
2014,07,10,03,09,14.40
2014,07,10,03,10,14.30
2014,07,10,03,11,14.30
2014,07,10,03,12,14.20
2014,07,10,03,13,14.20
2014,07,10,03,14,14.20
2014,07,10,03,15,14.20
2014,07,10,03,16,14.10
2014,07,10,03,17,14.10
2014,07,10,03,18,14.10
2014,07,10,03,19,14.10
2014,07,10,03,20,14.10
2014,07,10,03,21,14.10
2014,07,10,03,22,14.10
2014,07,10,03,23,14.10
2014,07,10,03,24,14.10
2014,07,10,03,25,14.10
2014,07,10,03,26,14.10
2014,07,10,03,27,14.10
2014,07,10,03,28,14.10
2014,07,10,03,29,14.10
2014,07,10,03,30,14.00
2014,07,10,03,31,14.00
2014,07,10,03,32,14.00
2014,07,10,03,33,13.90
2014,07,10,03,34,13.90
2014,07,10,03,35,13.90
2014,07,10,03,36,13.90
2014,07,10,03,37,13.90
2014,07,10,03,38,13.90
2014,07,10,03,39,13.90
2014,07,10,03,40,13.90
2014,07,10,03,41,13.80
2014,07,10,03,42,13.80
2014,07,10,03,43,13.80
2014,07,10,03,44,13.80
2014,07,10,03,45,13.80
2014,07,10,03,46,13.80
2014,07,10,03,47,13.80
2014,07,10,03,48,13.70
2014,07,10,03,49,13.70
2014,07,10,03,50,13.70
2014,07,10,03,51,13.70
2014,07,10,03,52,13.70
2014,07,10,03,53,13.70
2014,07,10,03,54,13.60
2014,07,10,03,55,13.60
2014,07,10,03,56,13.60
2014,07,10,03,57,13.60
2014,07,10,03,58,13.50
2014,07,10,03,59,13.50
2014,07,10,04,00,13.50
2014,07,10,04,01,13.50
2014,07,10,04,02,13.50
2014,07,10,04,03,13.50
2014,07,10,04,04,13.50
2014,07,10,04,05,13.50
2014,07,10,04,06,13.50
2014,07,10,04,07,13.50
2014,07,10,04,08,13.50
2014,07,10,04,09,13.40
2014,07,10,04,10,13.40
2014,07,10,04,11,13.40
2014,07,10,04,12,13.40
2014,07,10,04,13,13.40
2014,07,10,04,14,13.40
2014,07,10,04,15,13.30
2014,07,10,04,16,13.30
2014,07,10,04,17,13.30
2014,07,10,04,18,13.30
2014,07,10,04,19,13.40
2014,07,10,04,20,13.30
2014,07,10,04,21,13.30
2014,07,10,04,22,13.30
2014,07,10,04,23,13.30
2014,07,10,04,24,13.30
2014,07,10,04,25,13.30
2014,07,10,04,26,13.30
2014,07,10,04,27,13.30
2014,07,10,04,28,13.20
2014,07,10,04,29,13.20
2014,07,10,04,30,13.20
2014,07,10,04,31,13.20
2014,07,10,04,32,13.20
2014,07,10,04,33,13.20
2014,07,10,04,34,13.10
2014,07,10,04,35,13.10
2014,07,10,04,36,13.10
2014,07,10,04,37,13.10
2014,07,10,04,38,13.00
2014,07,10,04,39,13.00
2014,07,10,04,40,13.00
2014,07,10,04,41,12.90
2014,07,10,04,42,12.90
2014,07,10,04,43,12.90
2014,07,10,04,44,12.90
2014,07,10,04,45,12.90
2014,07,10,04,46,12.90
2014,07,10,04,47,12.80
2014,07,10,04,48,12.80
2014,07,10,04,49,12.80
2014,07,10,04,50,12.80
2014,07,10,04,51,12.80
2014,07,10,04,52,12.80
2014,07,10,04,53,12.80
2014,07,10,04,54,12.80
2014,07,10,04,55,12.80
2014,07,10,04,56,12.70
2014,07,10,04,57,12.70
2014,07,10,04,58,12.70
2014,07,10,04,59,12.70
2014,07,10,05,00,12.70
2014,07,10,05,01,12.70
2014,07,10,05,02,12.70
2014,07,10,05,03,12.70
2014,07,10,05,04,12.70
2014,07,10,05,05,12.70
2014,07,10,05,06,12.60
2014,07,10,05,07,12.60
2014,07,10,05,08,12.60
2014,07,10,05,09,12.60
2014,07,10,05,10,12.60
2014,07,10,05,11,12.60
2014,07,10,05,12,12.60
2014,07,10,05,13,12.60
2014,07,10,05,14,12.60
2014,07,10,05,15,12.60
2014,07,10,05,16,12.60
2014,07,10,05,17,12.60
2014,07,10,05,18,12.60
2014,07,10,05,19,12.60
2014,07,10,05,20,12.60
2014,07,10,05,21,12.50
2014,07,10,05,22,12.50
2014,07,10,05,23,12.50
2014,07,10,05,24,12.40
2014,07,10,05,25,12.40
2014,07,10,05,26,12.40
2014,07,10,05,27,12.50
2014,07,10,05,28,12.40
2014,07,10,05,29,12.40
2014,07,10,05,30,12.40
2014,07,10,05,31,12.40
2014,07,10,05,32,12.40
2014,07,10,05,33,12.40
2014,07,10,05,34,12.40
2014,07,10,05,35,12.40
2014,07,10,05,36,12.30
2014,07,10,05,37,12.30
2014,07,10,05,38,12.30
2014,07,10,05,39,12.30
2014,07,10,05,40,12.30
2014,07,10,05,41,12.30
2014,07,10,05,42,12.30
2014,07,10,05,43,12.30
2014,07,10,05,44,12.30
2014,07,10,05,45,12.30
2014,07,10,05,46,12.20
2014,07,10,05,47,12.20
2014,07,10,05,48,12.20
2014,07,10,05,49,12.20
2014,07,10,05,50,12.20
2014,07,10,05,51,12.20
2014,07,10,05,52,12.20
2014,07,10,05,53,12.20
2014,07,10,05,54,12.20
2014,07,10,05,55,12.20
2014,07,10,05,56,12.30
2014,07,10,05,57,12.30
2014,07,10,05,58,12.30
2014,07,10,05,59,12.30
2014,07,10,06,00,12.30
2014,07,10,06,01,12.40
2014,07,10,06,02,12.40
2014,07,10,06,03,12.40
2014,07,10,06,04,12.40
2014,07,10,06,05,12.40
2014,07,10,06,06,12.40
2014,07,10,06,07,12.40
2014,07,10,06,08,12.40
2014,07,10,06,09,12.40
2014,07,10,06,10,12.40
2014,07,10,06,11,12.40
2014,07,10,06,12,12.40
2014,07,10,06,13,12.40
2014,07,10,06,14,12.40
2014,07,10,06,15,12.40
2014,07,10,06,16,12.40
2014,07,10,06,17,12.40
2014,07,10,06,18,12.40
2014,07,10,06,19,12.30
2014,07,10,06,20,12.40
2014,07,10,06,21,12.30
2014,07,10,06,22,12.40
2014,07,10,06,23,12.40
2014,07,10,06,24,12.40
2014,07,10,06,25,12.40
2014,07,10,06,26,12.40
2014,07,10,06,27,12.40
2014,07,10,06,28,12.50
2014,07,10,06,29,12.50
2014,07,10,06,30,12.60
2014,07,10,06,31,12.60
2014,07,10,06,32,12.60
2014,07,10,06,33,12.70
2014,07,10,06,34,12.70
2014,07,10,06,35,12.70
2014,07,10,06,36,12.70
2014,07,10,06,37,12.70
2014,07,10,06,38,12.70
2014,07,10,06,39,12.80
2014,07,10,06,40,12.80
2014,07,10,06,41,12.80
2014,07,10,06,42,12.90
2014,07,10,06,43,12.90
2014,07,10,06,44,12.90
2014,07,10,06,45,12.90
2014,07,10,06,46,13.00
2014,07,10,06,47,13.00
2014,07,10,06,48,13.00
2014,07,10,06,49,13.10
2014,07,10,06,50,13.10
2014,07,10,06,51,13.10
2014,07,10,06,52,13.10
2014,07,10,06,53,13.20
2014,07,10,06,54,13.20
2014,07,10,06,55,13.20
2014,07,10,06,56,13.30
2014,07,10,06,57,13.30
2014,07,10,06,58,13.30
2014,07,10,06,59,13.30
2014,07,10,07,00,13.40
2014,07,10,07,01,13.50
2014,07,10,07,02,13.50
2014,07,10,07,03,13.60
2014,07,10,07,04,13.70
2014,07,10,07,05,13.70
2014,07,10,07,06,13.80
2014,07,10,07,07,13.90
2014,07,10,07,08,13.90
2014,07,10,07,09,14.00
2014,07,10,07,10,14.10
2014,07,10,07,11,14.10
2014,07,10,07,12,14.20
2014,07,10,07,13,14.20
2014,07,10,07,14,14.30
2014,07,10,07,15,14.30
2014,07,10,07,16,14.40
2014,07,10,07,17,14.40
2014,07,10,07,18,14.50
2014,07,10,07,19,14.60
2014,07,10,07,20,14.70
2014,07,10,07,21,14.70
2014,07,10,07,22,14.80
2014,07,10,07,23,14.90
2014,07,10,07,24,14.90
2014,07,10,07,25,15.00
2014,07,10,07,26,15.10
2014,07,10,07,27,15.20
2014,07,10,07,28,15.20
2014,07,10,07,29,15.30
2014,07,10,07,30,15.30
2014,07,10,07,31,15.40
2014,07,10,07,32,15.50
2014,07,10,07,33,15.60
2014,07,10,07,34,15.70
2014,07,10,07,35,15.80
2014,07,10,07,36,15.90
2014,07,10,07,37,16.00
2014,07,10,07,38,16.10
2014,07,10,07,39,16.10
2014,07,10,07,40,16.20
2014,07,10,07,41,16.30
2014,07,10,07,42,16.40
2014,07,10,07,43,16.50
2014,07,10,07,44,16.60
2014,07,10,07,45,16.70
2014,07,10,07,46,16.80
2014,07,10,07,47,16.80
2014,07,10,07,48,16.90
2014,07,10,07,49,17.00
2014,07,10,07,50,17.10
2014,07,10,07,51,17.20
2014,07,10,07,52,17.30
2014,07,10,07,53,17.30
2014,07,10,07,54,17.40
2014,07,10,07,55,17.40
2014,07,10,07,56,17.50
2014,07,10,07,57,17.50
2014,07,10,07,58,17.60
2014,07,10,07,59,17.60
2014,07,10,08,00,17.60
2014,07,10,08,01,17.60
2014,07,10,08,02,17.60
2014,07,10,08,03,17.70
2014,07,10,08,04,17.70
2014,07,10,08,05,17.80
2014,07,10,08,06,17.80
2014,07,10,08,07,17.90
2014,07,10,08,08,18.00
2014,07,10,08,09,18.10
2014,07,10,08,10,18.10
2014,07,10,08,11,18.20
2014,07,10,08,12,18.20
2014,07,10,08,13,18.20
2014,07,10,08,14,18.30
2014,07,10,08,15,18.30
2014,07,10,08,16,18.40
2014,07,10,08,17,18.40
2014,07,10,08,18,18.50
2014,07,10,08,19,18.50
2014,07,10,08,20,18.60
2014,07,10,08,21,18.60
2014,07,10,08,22,18.70
2014,07,10,08,23,18.70
2014,07,10,08,24,18.70
2014,07,10,08,25,18.70
2014,07,10,08,26,18.80
2014,07,10,08,27,18.80
2014,07,10,08,28,18.80
2014,07,10,08,29,18.90
2014,07,10,08,30,18.90
2014,07,10,08,31,19.00
2014,07,10,08,32,19.10
2014,07,10,08,33,19.10
2014,07,10,08,34,19.10
2014,07,10,08,35,19.10
2014,07,10,08,36,19.00
2014,07,10,08,37,19.00
2014,07,10,08,38,18.90
2014,07,10,08,39,18.90
2014,07,10,08,40,18.80
2014,07,10,08,41,18.90
2014,07,10,08,42,18.90
2014,07,10,08,43,18.90
2014,07,10,08,44,19.00
2014,07,10,08,45,19.00
2014,07,10,08,46,19.00
2014,07,10,08,47,19.00
2014,07,10,08,48,19.00
2014,07,10,08,49,19.10
2014,07,10,08,50,19.10
2014,07,10,08,51,19.10
2014,07,10,08,52,19.20
2014,07,10,08,53,19.30
2014,07,10,08,54,19.40
2014,07,10,08,55,19.50
2014,07,10,08,56,19.60
2014,07,10,08,57,19.70
2014,07,10,08,58,19.80
2014,07,10,08,59,19.90
2014,07,10,09,00,19.90
2014,07,10,09,01,20.00
2014,07,10,09,02,20.10
2014,07,10,09,03,20.10
2014,07,10,09,04,20.10
2014,07,10,09,05,20.10
2014,07,10,09,06,20.10
2014,07,10,09,07,20.10
2014,07,10,09,08,20.10
2014,07,10,09,09,20.10
2014,07,10,09,10,20.10
2014,07,10,09,11,20.10
2014,07,10,09,12,20.10
2014,07,10,09,13,20.10
2014,07,10,09,14,20.00
2014,07,10,09,15,20.00
2014,07,10,09,16,19.90
2014,07,10,09,17,20.00
2014,07,10,09,18,20.00
2014,07,10,09,19,20.00
2014,07,10,09,20,20.00
2014,07,10,09,21,20.00
2014,07,10,09,22,20.00
2014,07,10,09,23,20.10
2014,07,10,09,24,20.10
2014,07,10,09,25,20.20
2014,07,10,09,26,20.30
2014,07,10,09,27,20.40
2014,07,10,09,28,20.40
2014,07,10,09,29,20.50
2014,07,10,09,30,20.60
2014,07,10,09,31,20.70
2014,07,10,09,32,20.80
2014,07,10,09,33,20.90
2014,07,10,09,34,21.00
2014,07,10,09,35,21.10
2014,07,10,09,36,21.20
2014,07,10,09,37,21.30
2014,07,10,09,38,21.30
2014,07,10,09,39,21.30
2014,07,10,09,40,21.30
2014,07,10,09,41,21.30
2014,07,10,09,42,21.40
2014,07,10,09,43,21.50
2014,07,10,09,44,21.50
2014,07,10,09,45,21.50
2014,07,10,09,46,21.50
2014,07,10,09,47,21.50
2014,07,10,09,48,21.50
2014,07,10,09,49,21.60
2014,07,10,09,50,21.60
2014,07,10,09,51,21.70
2014,07,10,09,52,21.70
2014,07,10,09,53,21.80
2014,07,10,09,54,21.80
2014,07,10,09,55,21.80
2014,07,10,09,56,21.80
2014,07,10,09,57,21.80
2014,07,10,09,58,21.80
2014,07,10,09,59,21.80
2014,07,10,10,00,21.80
2014,07,10,10,01,21.80
2014,07,10,10,02,21.80
2014,07,10,10,03,21.90
2014,07,10,10,04,21.90
2014,07,10,10,05,21.90
2014,07,10,10,06,21.90
2014,07,10,10,07,21.90
2014,07,10,10,08,21.90
2014,07,10,10,09,21.80
2014,07,10,10,10,21.80
2014,07,10,10,11,21.70
2014,07,10,10,12,21.70
2014,07,10,10,13,21.70
2014,07,10,10,14,21.70
2014,07,10,10,15,21.80
2014,07,10,10,16,21.80
2014,07,10,10,17,21.80
2014,07,10,10,18,21.80
2014,07,10,10,19,21.90
2014,07,10,10,20,22.10
2014,07,10,10,21,22.20
2014,07,10,10,22,22.30
2014,07,10,10,23,22.30
2014,07,10,10,24,22.30
2014,07,10,10,25,22.30
2014,07,10,10,26,22.40
2014,07,10,10,27,22.50
2014,07,10,10,28,22.60
2014,07,10,10,29,22.50
2014,07,10,10,30,22.40
2014,07,10,10,31,22.30
2014,07,10,10,32,22.30
2014,07,10,10,33,22.30
2014,07,10,10,34,22.40
2014,07,10,10,35,22.30
2014,07,10,10,36,22.20
2014,07,10,10,37,22.10
2014,07,10,10,38,22.00
2014,07,10,10,39,21.80
2014,07,10,10,40,21.70
2014,07,10,10,41,21.60
2014,07,10,10,42,21.50
2014,07,10,10,43,21.40
2014,07,10,10,44,21.40
2014,07,10,10,45,21.40
2014,07,10,10,46,21.40
2014,07,10,10,47,21.40
2014,07,10,10,48,21.40
2014,07,10,10,49,21.50
2014,07,10,10,50,21.60
2014,07,10,10,51,21.70
2014,07,10,10,52,21.80
2014,07,10,10,53,21.90
2014,07,10,10,54,22.10
2014,07,10,10,55,22.20
2014,07,10,10,56,22.20
2014,07,10,10,57,22.20
2014,07,10,10,58,22.20
2014,07,10,10,59,22.00
2014,07,10,11,00,22.00
2014,07,10,11,01,21.90
2014,07,10,11,02,21.90
2014,07,10,11,03,21.90
2014,07,10,11,04,22.00
2014,07,10,11,05,22.00
2014,07,10,11,06,22.10
2014,07,10,11,07,22.20
2014,07,10,11,08,22.30
2014,07,10,11,09,22.30
2014,07,10,11,10,22.30
2014,07,10,11,11,22.40
2014,07,10,11,12,22.50
2014,07,10,11,13,22.60
2014,07,10,11,14,22.70
2014,07,10,11,15,22.70
2014,07,10,11,16,22.70
2014,07,10,11,17,22.60
2014,07,10,11,18,22.50
2014,07,10,11,19,22.50
2014,07,10,11,20,22.60
2014,07,10,11,21,22.60
2014,07,10,11,22,22.60
2014,07,10,11,23,22.60
2014,07,10,11,24,22.60
2014,07,10,11,25,22.70
2014,07,10,11,26,22.70
2014,07,10,11,27,22.70
2014,07,10,11,28,22.70
2014,07,10,11,29,22.70
2014,07,10,11,30,22.80
2014,07,10,11,31,22.80
2014,07,10,11,32,22.80
2014,07,10,11,33,22.80
2014,07,10,11,34,22.70
2014,07,10,11,35,22.80
2014,07,10,11,36,22.80
2014,07,10,11,37,22.90
2014,07,10,11,38,22.90
2014,07,10,11,39,22.90
2014,07,10,11,40,22.80
2014,07,10,11,41,22.80
2014,07,10,11,42,22.80
2014,07,10,11,43,22.80
2014,07,10,11,44,22.90
2014,07,10,11,45,23.00
2014,07,10,11,46,23.20
2014,07,10,11,47,23.30
2014,07,10,11,48,23.50
2014,07,10,11,49,23.60
2014,07,10,11,50,23.60
2014,07,10,11,51,23.60
2014,07,10,11,52,23.60
2014,07,10,11,53,23.60
2014,07,10,11,54,23.60
2014,07,10,11,55,23.60
2014,07,10,11,56,23.60
2014,07,10,11,57,23.60
2014,07,10,11,58,23.60
2014,07,10,11,59,23.60
2014,07,10,12,00,23.40
2014,07,10,12,01,23.30
2014,07,10,12,02,23.20
2014,07,10,12,03,23.30
2014,07,10,12,04,23.30
2014,07,10,12,05,23.30
2014,07,10,12,06,23.40
2014,07,10,12,07,23.40
2014,07,10,12,08,23.40
2014,07,10,12,09,23.40
2014,07,10,12,10,23.40
2014,07,10,12,11,23.30
2014,07,10,12,12,23.30
2014,07,10,12,13,23.10
2014,07,10,12,14,23.10
2014,07,10,12,15,23.20
2014,07,10,12,16,23.20
2014,07,10,12,17,23.30
2014,07,10,12,18,23.50
2014,07,10,12,19,23.60
2014,07,10,12,20,23.70
2014,07,10,12,21,23.70
2014,07,10,12,22,23.80
2014,07,10,12,23,23.90
2014,07,10,12,24,23.90
2014,07,10,12,25,23.90
2014,07,10,12,26,23.80
2014,07,10,12,27,23.80
2014,07,10,12,28,23.80
2014,07,10,12,29,23.90
2014,07,10,12,30,23.90
2014,07,10,12,31,24.00
2014,07,10,12,32,24.10
2014,07,10,12,33,24.20
2014,07,10,12,34,24.20
2014,07,10,12,35,24.10
2014,07,10,12,36,24.00
2014,07,10,12,37,24.00
2014,07,10,12,38,24.00
2014,07,10,12,39,24.10
2014,07,10,12,40,24.10
2014,07,10,12,41,24.10
2014,07,10,12,42,24.10
2014,07,10,12,43,24.00
2014,07,10,12,44,24.00
2014,07,10,12,45,23.90
2014,07,10,12,46,23.80
2014,07,10,12,47,23.80
2014,07,10,12,48,23.80
2014,07,10,12,49,23.80
2014,07,10,12,50,23.70
2014,07,10,12,51,23.50
2014,07,10,12,52,23.40
2014,07,10,12,53,23.40
2014,07,10,12,54,23.40
2014,07,10,12,55,23.40
2014,07,10,12,56,23.50
2014,07,10,12,57,23.40
2014,07,10,12,58,23.50
2014,07,10,12,59,23.60
2014,07,10,13,00,23.70
2014,07,10,13,01,23.90
2014,07,10,13,02,24.00
2014,07,10,13,03,24.00
2014,07,10,13,04,23.90
2014,07,10,13,05,23.90
2014,07,10,13,06,23.90
2014,07,10,13,07,23.70
2014,07,10,13,08,23.70
2014,07,10,13,09,23.60
2014,07,10,13,10,23.40
2014,07,10,13,11,23.30
2014,07,10,13,12,23.10
2014,07,10,13,13,23.00
2014,07,10,13,14,22.80
2014,07,10,13,15,22.80
2014,07,10,13,16,22.80
2014,07,10,13,17,22.90
2014,07,10,13,18,23.00
2014,07,10,13,19,23.00
2014,07,10,13,20,23.00
2014,07,10,13,21,22.90
2014,07,10,13,22,22.90
2014,07,10,13,23,22.90
2014,07,10,13,24,23.00
2014,07,10,13,25,23.00
2014,07,10,13,26,23.00
2014,07,10,13,27,23.00
2014,07,10,13,28,23.00
2014,07,10,13,29,22.90
2014,07,10,13,30,23.00
2014,07,10,13,31,23.00
2014,07,10,13,32,23.00
2014,07,10,13,33,23.00
2014,07,10,13,34,23.10
2014,07,10,13,35,23.20
2014,07,10,13,36,23.40
2014,07,10,13,37,23.50
2014,07,10,13,38,23.50
2014,07,10,13,39,23.40
2014,07,10,13,40,23.30
2014,07,10,13,41,23.30
2014,07,10,13,42,23.30
2014,07,10,13,43,23.30
2014,07,10,13,44,23.30
2014,07,10,13,45,23.30
2014,07,10,13,46,23.30
2014,07,10,13,47,23.40
2014,07,10,13,48,23.60
2014,07,10,13,49,23.70
2014,07,10,13,50,23.80
2014,07,10,13,51,23.90
2014,07,10,13,52,23.80
2014,07,10,13,53,23.70
2014,07,10,13,54,23.60
2014,07,10,13,55,23.60
2014,07,10,13,56,23.70
2014,07,10,13,57,23.90
2014,07,10,13,58,24.00
2014,07,10,13,59,24.20
2014,07,10,14,00,24.30
2014,07,10,14,01,24.30
2014,07,10,14,02,24.20
2014,07,10,14,03,24.20
2014,07,10,14,04,24.20
2014,07,10,14,05,24.10
2014,07,10,14,06,24.00
2014,07,10,14,07,23.90
2014,07,10,14,08,24.00
2014,07,10,14,09,24.10
2014,07,10,14,10,24.20
2014,07,10,14,11,24.20
2014,07,10,14,12,24.10
2014,07,10,14,13,24.10
2014,07,10,14,14,24.10
2014,07,10,14,15,24.10
2014,07,10,14,16,24.20
2014,07,10,14,17,24.20
2014,07,10,14,18,24.30
2014,07,10,14,19,24.30
2014,07,10,14,20,24.20
2014,07,10,14,21,24.30
2014,07,10,14,22,24.30
2014,07,10,14,23,24.40
2014,07,10,14,24,24.30
2014,07,10,14,25,24.20
2014,07,10,14,26,24.20
2014,07,10,14,27,24.30
2014,07,10,14,28,24.30
2014,07,10,14,29,24.40
2014,07,10,14,30,24.40
2014,07,10,14,31,24.50
2014,07,10,14,32,24.50
2014,07,10,14,33,24.40
2014,07,10,14,34,24.30
2014,07,10,14,35,24.20
2014,07,10,14,36,24.20
2014,07,10,14,37,24.20
2014,07,10,14,38,24.20
2014,07,10,14,39,24.30
2014,07,10,14,40,24.40
2014,07,10,14,41,24.60
2014,07,10,14,42,24.70
2014,07,10,14,43,24.80
2014,07,10,14,44,25.00
2014,07,10,14,45,25.30
2014,07,10,14,46,25.40
2014,07,10,14,47,25.50
2014,07,10,14,48,25.40
2014,07,10,14,49,25.40
2014,07,10,14,50,25.30
2014,07,10,14,51,25.20
2014,07,10,14,52,25.00
2014,07,10,14,53,25.00
2014,07,10,14,54,25.00
2014,07,10,14,55,24.90
2014,07,10,14,56,24.80
2014,07,10,14,57,24.60
2014,07,10,14,58,24.60
2014,07,10,14,59,24.50
2014,07,10,15,00,24.60
2014,07,10,15,01,24.70
2014,07,10,15,02,24.80
2014,07,10,15,03,24.80
2014,07,10,15,04,24.80
2014,07,10,15,05,24.80
2014,07,10,15,06,24.70
2014,07,10,15,07,24.60
2014,07,10,15,08,24.60
2014,07,10,15,09,24.50
2014,07,10,15,10,24.40
2014,07,10,15,11,24.30
2014,07,10,15,12,24.30
2014,07,10,15,13,24.30
2014,07,10,15,14,24.30
2014,07,10,15,15,24.40
2014,07,10,15,16,24.50
2014,07,10,15,17,24.50
2014,07,10,15,18,24.60
2014,07,10,15,19,24.70
2014,07,10,15,20,24.80
2014,07,10,15,21,24.80
2014,07,10,15,22,24.70
2014,07,10,15,23,24.60
2014,07,10,15,24,24.50
2014,07,10,15,25,24.50
2014,07,10,15,26,24.50
2014,07,10,15,27,24.40
2014,07,10,15,28,24.30
2014,07,10,15,29,24.20
2014,07,10,15,30,24.20
2014,07,10,15,31,24.20
2014,07,10,15,32,24.30
2014,07,10,15,33,24.20
2014,07,10,15,34,24.20
2014,07,10,15,35,24.20
2014,07,10,15,36,24.20
2014,07,10,15,37,24.30
2014,07,10,15,38,24.30
2014,07,10,15,39,24.30
2014,07,10,15,40,24.40
2014,07,10,15,41,24.50
2014,07,10,15,42,24.60
2014,07,10,15,43,24.70
2014,07,10,15,44,24.70
2014,07,10,15,45,24.70
2014,07,10,15,46,24.60
2014,07,10,15,47,24.50
2014,07,10,15,48,24.40
2014,07,10,15,49,24.30
2014,07,10,15,50,24.20
2014,07,10,15,51,24.10
2014,07,10,15,52,24.10
2014,07,10,15,53,24.00
2014,07,10,15,54,24.00
2014,07,10,15,55,24.10
2014,07,10,15,56,24.20
2014,07,10,15,57,24.30
2014,07,10,15,58,24.40
2014,07,10,15,59,24.30
2014,07,10,16,00,24.20
2014,07,10,16,01,24.10
2014,07,10,16,02,24.00
2014,07,10,16,03,23.80
2014,07,10,16,04,23.90
2014,07,10,16,05,23.90
2014,07,10,16,06,24.00
2014,07,10,16,07,23.90
2014,07,10,16,08,24.00
2014,07,10,16,09,24.00
2014,07,10,16,10,24.00
2014,07,10,16,11,24.00
2014,07,10,16,12,24.00
2014,07,10,16,13,23.90
2014,07,10,16,14,23.90
2014,07,10,16,15,23.90
2014,07,10,16,16,23.90
2014,07,10,16,17,23.90
2014,07,10,16,18,24.00
2014,07,10,16,19,24.00
2014,07,10,16,20,24.10
2014,07,10,16,21,24.20
2014,07,10,16,22,24.20
2014,07,10,16,23,24.20
2014,07,10,16,24,24.30
2014,07,10,16,25,24.40
2014,07,10,16,26,24.50
2014,07,10,16,27,24.60
2014,07,10,16,28,24.60
2014,07,10,16,29,24.60
2014,07,10,16,30,24.70
2014,07,10,16,31,24.70
2014,07,10,16,32,24.70
2014,07,10,16,33,24.70
2014,07,10,16,34,24.60
2014,07,10,16,35,24.70
2014,07,10,16,36,24.70
2014,07,10,16,37,24.70
2014,07,10,16,38,24.70
2014,07,10,16,39,24.80
2014,07,10,16,40,24.80
2014,07,10,16,41,24.70
2014,07,10,16,42,24.70
2014,07,10,16,43,24.80
2014,07,10,16,44,24.90
2014,07,10,16,45,25.00
2014,07,10,16,46,25.10
2014,07,10,16,47,25.20
2014,07,10,16,48,25.20
2014,07,10,16,49,25.20
2014,07,10,16,50,25.20
2014,07,10,16,51,25.20
2014,07,10,16,52,25.20
2014,07,10,16,53,25.20
2014,07,10,16,54,25.20
2014,07,10,16,55,25.20
2014,07,10,16,56,25.30
2014,07,10,16,57,25.40
2014,07,10,16,58,25.50
2014,07,10,16,59,25.60
2014,07,10,17,00,25.70
2014,07,10,17,01,25.90
2014,07,10,17,02,26.00
2014,07,10,17,03,26.10
2014,07,10,17,04,26.10
2014,07,10,17,05,26.00
2014,07,10,17,06,26.00
2014,07,10,17,07,26.10
2014,07,10,17,08,26.20
2014,07,10,17,09,26.20
2014,07,10,17,10,26.20
2014,07,10,17,11,26.20
2014,07,10,17,12,26.30
2014,07,10,17,13,26.30
2014,07,10,17,14,26.30
2014,07,10,17,15,26.30
2014,07,10,17,16,26.20
2014,07,10,17,17,26.20
2014,07,10,17,18,26.30
2014,07,10,17,19,26.30
2014,07,10,17,20,26.30
2014,07,10,17,21,26.30
2014,07,10,17,22,26.20